{"data":{"norad_id":62221,"intl_designator":"2024-231D","name":"STARLINK-11468 [DTC]","alt_names":[],"object_type":"PAYLOAD","status":"ACTIVE","operator":null,"country":"US","launch_date":"2024-12-05","launch_site_code":"AFWTR","launch_vehicle":null,"mission":null,"orbit_class":"UNKNOWN","rcs_meters":null,"size_class":null,"mass_kg":null,"dimensions":null,"purposes":["comms"],"wikipedia_slug":null,"has_3d_model":false,"image_url":null,"decayed_at":null,"tle_current":{"epoch":"2026-05-25T04:41:50.012736Z","epoch_age_seconds":52142,"freshness":"FRESH","line1":"1 62221U 24231D   26145.19571774  .00211135  00000+0  16977-2 0  9998","line2":"2 62221  53.1567  84.4124 0002855 153.4133 206.7032 15.69792103 85427","mean_motion":15.69792103,"eccentricity":0.0002855,"inclination_deg":53.1567,"raan_deg":84.4124,"arg_perigee_deg":153.4133,"mean_anomaly_deg":206.7032,"bstar":0.0016977,"rev_number":8542,"period_min":91.731892219871,"perigee_km":357.56822027515,"apogee_km":361.41540632754,"semimajor_km":6737.6288133013,"source":"CELESTRAK","updated_at":"2026-05-25T13:38:19.613574Z"}}}